Home > Time Zones > World Clock > Weather > Egypt > Cairo > Past weeks

Flag for Egypt Weather past 2 weeks in Cairo, Egypt

Now
75 °F

Clear.


Feels Like: 78 °F
Forecast: 67 / 97 °F
Wind: 5 mph from Northeast

Location: Cairo Airport

Current Time: May 23, 2015 at 12:41:08 AM

Latest Report: May 23, 2015 at 12:00 AM


Visibility: 10 mi

Pressure: 29.98 "Hg

Humidity: 47%

Dew point: 54 °F

Location of CairoLocation

Historic Weather in Cairo — Graph

°F

Cairo temperature yesterday

Maximum temperature yesterday: 88 °F (at 2:30 PM)
Minimum temperature yesterday: 66 °F (at 2:00 AM)
Average temperature yesterday: 76 °F

Past Weeks' High & Low Weather Summary

 TemperatureHumidityPressure
High99 °F (May 19, 2:30 PM)94% (May 18, 6:00 AM)30.18 "Hg (May 18, 6:00 AM)
Low63 °F (May 15, 5:00 AM)11% (May 19, 1:00 PM)29.68 "Hg (May 9, 3:30 PM)
Average77 °F49%29.91 "Hg
* Reported May 7 11:00 PM — May 22 11:00 PM, Cairo, Weather by CustomWeather, © 2015

Note: Actual official high and low records may vary slightly from our data, if they occured in-between our weather recording intervals... More about our weather records

Advertising

Cairo weather history for previous 24 hours

 ConditionsComfort  
Time TempWeatherWind HumidityBarometerVisibility
11:00 PM
Fri, May 22
75 °FClear.5 mph50%29.98 "Hg10 mi
10:30 PM77 °FClear.6 mph47%29.98 "Hg10 mi
10:00 PM77 °FClear.6 mph47%29.98 "Hg10 mi
9:30 PM79 °FClear.8 mph45%29.95 "Hg10 mi
9:00 PM79 °FClear.8 mph45%29.95 "Hg10 mi
8:30 PM81 °FClear.9 mph42%29.95 "Hg10 mi
8:00 PM81 °FClear.9 mph42%29.95 "Hg10 mi
7:30 PM82 °FClear.9 mph37%29.92 "Hg10 mi
7:00 PM82 °FClear.9 mph37%29.92 "Hg10 mi
6:30 PM84 °FSunny.7 mph37%29.92 "Hg10 mi
6:00 PM84 °FSunny.6 mph37%29.92 "Hg10 mi
5:30 PM86 °FSunny.7 mph33%29.92 "Hg10 mi
5:00 PM86 °FSunny.8 mph33%29.89 "Hg10 mi
4:30 PM88 °FSunny.7 mph31%29.89 "Hg10 mi
4:00 PM86 °FSunny.8 mph33%29.89 "Hg10 mi
3:30 PM88 °FSunny.9 mph31%29.89 "Hg10 mi
3:00 PM88 °FSunny.7 mph29%29.92 "Hg10 mi
2:30 PM88 °FSunny.7 mph31%29.92 "Hg10 mi
2:00 PM86 °FSunny.6 mph31%29.92 "Hg10 mi
1:30 PM86 °FSunny.7 mph33%29.92 "Hg10 mi
1:00 PM84 °FSunny.6 mph37%29.95 "Hg10 mi
12:30 PM82 °FSunny.5 mph37%29.95 "Hg10 mi
12:00 PM81 °FSunny.5 mph45%29.95 "Hg10 mi
11:30 AM81 °FSunny.5 mph42%29.98 "Hg10 mi
11:00 AM79 °FSunny.2 mph48%29.98 "Hg10 mi
10:30 AM79 °FSunny.3 mph48%29.98 "Hg10 mi
10:00 AM77 °FSunny.5 mph51%29.98 "Hg10 mi
9:30 AM75 °FSunny.1 mph54%29.98 "Hg10 mi
9:00 AM73 °FSunny.No wind57%29.98 "Hg10 mi
8:30 AM72 °FScattered clouds.No wind65%29.98 "HgN/A
8:00 AM70 °FScattered clouds.No wind69%29.98 "HgN/A
7:30 AM70 °FClear.No wind69%29.98 "Hg4 mi
7:00 AM70 °FClear.No wind73%29.98 "Hg4 mi
6:30 AM68 °FClear.No wind78%29.98 "Hg4 mi
6:00 AM68 °FClear.5 mph78%29.98 "Hg4 mi
5:30 AM66 °FClear.3 mph78%29.98 "Hg4 mi
5:00 AM66 °FClear.3 mph78%29.98 "Hg4 mi
4:30 AM66 °FClear.5 mph78%29.95 "Hg4 mi
4:00 AM66 °FClear.5 mph78%29.95 "Hg4 mi
3:30 AM66 °FClear.5 mph78%29.95 "Hg4 mi
3:00 AM66 °FClear.5 mph78%29.95 "Hg4 mi
2:30 AM66 °FClear.5 mph78%29.95 "Hg4 mi
2:00 AM66 °FClear.5 mph78%29.98 "Hg4 mi
1:30 AM68 °FClear.5 mph73%29.98 "Hg4 mi
1:00 AM68 °FClear.5 mph73%29.98 "Hg4 mi
12:30 AM68 °FClear.6 mph73%29.98 "Hg4 mi
12:00 AM70 °FClear.8 mph69%29.98 "Hg4 mi
Weather by CustomWeather, © 2015

See weather overviewHow to use our weather pages